This demonstration page uses our WeatherBlox Daily Observations layout. Learn more.

Left ArrowRight Arrow

38.83388, -104.82136

Hourly Observations for November 3, 2019

Temp ( °F °C ) Dew Point ( °F °C ) Humidity (%) Winds ( mph kmh ) Pressure ( in mb ) Visibility ( mi km ) Precip ( " mm )
12:58 am 00:58 Clear 41 5.1 12 -11.1 30 30 Calm 29.98 1015 10 16 0.00 0.00
1:58 am 01:58 Clear 40 4.3 11 -11.9 30 30 Calm 29.75 1008 10 16 0.00 0.00
1:58 am 01:58 Clear 39 3.8 14 -10 36 36 Calm 29.73 1007 10 16 0.00 0.00
2:58 am 02:58 Clear 40 4.2 13 -10.8 33 33 NW 6 9 29.95 1014 10 16 0.00 0.00
3:58 am 03:58 Clear 40 4.5 10 -12.2 29 29 W 7 11 29.70 1006 10 16 0.00 0.00
4:58 am 04:58 Clear 42 5.8 10 -12.5 26 26 W 6 9 29.88 1012 10 16 0.00 0.00
5:58 am 05:58 Clear 42 5.6 8 -13.4 24 24 N 6 9 29.64 1004 10 16 0.00 0.00
6:58 am 06:58 Sunny 43 5.9 11 -11.7 27 27 NW 6 9 29.68 1005 10 16 0.00 0.00
7:58 am 07:58 Sunny 48 8.8 11 -11.7 22 22 Calm 29.66 1004 10 16 0.00 0.00
8:58 am 08:58 Sunny 49 9.2 11 -11.7 22 22 Calm 29.67 1005 10 16 0.00 0.00
11:58 am 11:58 Sunny 56 13.5 14 -10.1 19 19 SE 12 19 29.59 1002 10 16 0.00 0.00
12:58 pm 12:58 Sunny 57 13.7 19 -7 23 23 ESE 6 9 29.57 1001 10 16 0.00 0.00
1:58 pm 13:58 Sunny 57 13.9 19 -7 23 23 Calm 29.56 1001 10 16 0.00 0.00
2:58 pm 14:58 Sunny 50 9.9 22 -5.7 33 33 WNW 9 15 29.60 1002 10 16 0.00 0.00
3:58 pm 15:58 Mostly Cloudy 48 8.9 27 -3 43 43 WNW 5 7 29.61 1003 10 16 0.00 0.00
4:58 pm 16:58 Mostly Clear 46 7.5 24 -4.5 43 43 WNW 6 9 29.64 1004 10 16 0.00 0.00
6:58 pm 18:58 Mostly Cloudy 48 8.8 15 -9.6 26 26 SSW 8 13 29.81 1009 10 16 0.00 0.00
7:58 pm 19:58 Mostly Clear 46 7.5 16 -9 30 30 S 10 17 29.63 1004 10 16 0.00 0.00
8:58 pm 20:58 Mostly Clear 44 6.6 17 -8.4 34 34 S 10 17 29.88 1012 10 16 0.00 0.00
9:58 pm 21:58 Clear 43 6.2 19 -7.5 37 37 S 15 24 29.89 1012 10 16 0.00 0.00
10:58 pm 22:58 Clear 41 5 16 -8.7 37 37 SSE 9 15 29.92 1013 10 16 0.00 0.00
11:58 pm 23:58 Clear 40 4.4 17 -8.6 39 39 S 9 15 29.62 1003 10 16 0.00 0.00

Powered by AerisWeather